GFSNIL_850_temp_039.txt.gz
Temp
13 12 11 10 10 10 9 9 8 8 7 6 6 6 6 6 5 4 4 3 3 2
13 13 12 10 10 9 9 9 8 7 6 6 6 6 5 4 4 3 3 2 2 0
14 13 10 10 10 9 8 8 8 7 6 5 5 5 4 3 2 2 2 1 0 -0
14 13 12 12 11 10 9 8 7 6 5 5 3 3 2 2 1 0 1 0 -0 -1
14 13 13 12 11 9 8 7 6 5 5 3 2 2 1 1 0 0 0 -0 -1 -1
14 13 12 10 10 9 8 7 5 5 4 3 2 1 0 -0 -1 -0 -0 -1 -1 -1
11 9 9 9 9 8 8 5 5 4 3 1 1 -0 -1 -0 -1 -1 -1 -1 -1 -1
9 9 8 8 7 6 5 4 3 3 2 1 -0 -1 -0 -1 -2 -1 -0 -1 -1 -2
8 7 7 6 5 5 4 3 2 1 -0 -1 0 -1 -1 -1 -2 -1 -1 -1 -2 -2
7 6 5 5 5 4 3 1 0 0 -0 -0 -0 -1 -1 -1 -2 -2 -1 -2 -2 -2
5 5 4 3 2 1 1 1 0 -0 -1 -1 -1 -2 -2 -2 -2 -2 -2 -2 -3 -3
3 3 3 2 1 -0 0 -0 -1 -1 -1 -1 -1 -2 -2 -2 -2 -2 -2 -2 -3 -3
1 1 0 -0 -1 -0 -0 -1 -1 -1 -1 -1 -2 -2 -2 -3 -3 -3 -3 -2 -3 -4
0 0 0 -0 -0 -0 -1 -1 -1 -1 -1 -2 -2 -2 -3 -3 -4 -4 -4 -4 -3 -4

GFSNIL_850_temp_042.txt.gz
Temp
13 13 12 10 9 10 10 10 9 9 8 8 7 7 6 5 5 4 4 2 2 2
14 13 12 10 10 10 10 9 9 8 8 8 7 5 5 5 3 3 2 1 1 1
14 14 13 11 11 10 9 9 9 8 8 7 6 5 5 4 1 1 1 0 0 0
14 13 13 13 12 12 11 10 9 8 7 7 6 4 3 1 0 -0 1 -0 -0 -0
13 13 13 13 12 11 10 9 8 8 7 6 4 3 2 0 -0 1 -0 -0 0 -0
14 14 13 12 11 10 9 9 8 6 5 3 3 2 1 -0 -1 -0 -1 -1 -0 -0
12 11 10 10 9 8 8 7 7 5 3 2 2 1 -0 -1 -0 -0 -0 -2 -1 -1
10 9 9 9 8 8 7 7 5 4 2 2 0 0 1 -1 -0 -1 -2 -2 -1 -1
9 8 8 8 7 7 6 5 3 3 3 2 1 1 0 -1 -1 -1 -2 -2 -1 -1
7 7 7 6 5 5 4 3 3 2 2 0 0 -0 -0 -1 -2 -3 -2 -2 -2 -2
6 5 5 4 4 3 2 1 1 0 -0 -0 -0 -1 -1 -1 -2 -3 -3 -2 -2 -2
3 2 2 2 1 0 -0 -0 -0 -0 -1 -1 -1 -1 -1 -2 -2 -3 -3 -3 -3 -3
0 0 0 -0 1 0 0 -1 -0 -1 -2 -2 -1 -1 -2 -2 -3 -4 -4 -4 -4 -4
1 1 0 -1 -1 -1 -2 -1 -2 -1 -1 -3 -3 -3 -3 -3 -4 -4 -5 -4 -4 -4

GFSNIL_850_temp_045.txt.gz
Temp
13 14 13 13 12 11 12 10 9 9 10 9 8 7 7 7 6 6 6 4 3 3
13 14 13 14 12 12 10 9 9 9 9 8 7 6 7 6 5 5 4 3 1 1
13 13 13 13 12 10 10 9 10 9 9 8 7 6 6 5 5 4 2 1 1 0
12 12 12 12 10 10 9 9 9 9 7 6 6 6 4 4 3 2 1 1 1 0
10 10 11 10 10 10 9 8 8 8 8 6 6 4 4 3 1 1 0 1 1 -0
11 11 11 10 10 9 9 8 8 7 6 5 4 3 2 2 0 1 1 0 -0 -1
10 10 10 9 9 9 8 8 7 6 5 4 3 2 2 1 1 1 0 0 -0 -0
9 8 8 7 7 7 7 7 6 6 4 3 3 2 2 1 -1 -0 0 -0 -1 -1
7 7 6 6 7 7 6 6 5 5 4 3 2 1 1 0 -0 -1 -0 -1 -1 -1
6 7 7 6 6 5 5 4 3 2 2 1 0 -0 0 -0 -1 -1 -1 -2 -2 -1
6 6 6 5 4 4 3 2 2 1 0 0 0 -0 -0 -0 -1 -1 -2 -2 -2 -1
4 3 2 2 2 2 1 0 1 0 0 -0 -0 -0 -1 -1 -2 -3 -3 -3 -2 -2
3 2 1 1 1 1 1 1 0 -1 -1 -1 -2 -2 -2 -2 -3 -4 -4 -4 -3 -3
2 2 1 0 0 0 0 -0 -1 -1 -2 -2 -2 -3 -3 -4 -4 -5 -5 -6 -6 -5

GFSNIL_850_temp_048.txt.gz
Temp
15 14 14 13 13 13 13 11 9 10 9 9 9 8 7 7 7 6 6 5 5 5
15 14 12 13 13 13 12 11 10 9 9 9 9 8 7 7 6 6 4 5 5 4
14 13 12 12 12 12 12 11 10 9 9 9 8 7 7 7 6 5 4 4 3 2
14 13 12 12 11 11 10 9 9 9 9 8 8 7 6 6 5 3 3 2 1 1
13 12 11 10 10 10 10 9 9 8 8 8 8 6 5 4 3 3 3 2 2 1
12 11 11 10 10 9 9 9 8 8 8 7 5 4 3 2 2 2 2 1 1 0
13 11 11 10 9 9 8 8 8 7 6 6 5 4 4 3 2 2 1 1 0 -0
11 10 9 9 8 8 8 7 7 7 6 5 4 4 3 2 1 1 0 -0 -1 -0
9 8 7 7 6 6 7 6 6 5 4 3 3 2 1 1 -0 -0 -1 -0 -1 -1
7 7 7 6 6 6 5 5 4 4 3 2 1 1 0 0 -0 -1 -1 -1 -1 -1
7 7 7 6 5 5 4 4 3 3 1 1 0 -0 -1 -1 -1 -1 -1 -2 -3 -2
6 5 5 5 4 4 3 1 1 0 0 -0 -1 -1 -1 -1 -1 -1 -2 -2 -2 -3
4 3 3 2 2 2 1 1 1 0 -0 -1 -1 -2 -1 -1 -2 -2 -2 -2 -3 -3
3 3 2 2 2 1 1 0 0 -0 -1 -1 -2 -2 -2 -2 -2 -3 -3 -3 -3 -4

GFSNIL_850_temp_051.txt.gz
Temp
14 14 13 13 13 13 12 13 13 13 11 11 10 10 9 9 8 7 7 7 6 5
14 14 14 13 13 13 13 13 12 12 12 10 9 10 9 8 8 7 7 6 6 4
14 14 13 13 13 13 13 12 12 12 11 10 9 9 8 8 7 6 6 5 4 4
14 14 14 14 13 12 11 12 12 11 10 9 9 8 8 7 7 5 5 4 3 2
14 14 13 13 13 12 11 11 11 9 9 9 8 8 8 7 6 4 4 3 2 2
13 13 12 12 11 11 10 10 9 9 8 8 8 8 8 6 4 3 3 2 2 1
15 14 13 12 10 10 9 9 9 9 8 8 7 6 5 4 3 3 3 1 1 1
14 13 12 11 10 9 9 8 8 8 8 7 6 5 4 3 3 2 1 0 0 -0
13 12 11 10 9 8 8 8 7 7 6 5 4 3 2 2 1 0 0 0 -1 -1
11 10 10 8 8 7 7 7 6 6 5 3 2 2 1 0 0 0 -0 -1 -1 -1
10 9 8 7 6 6 6 5 5 4 3 2 1 0 0 -0 -1 -1 -1 -1 -2 -2
9 8 6 6 5 5 4 4 3 2 1 0 -0 -0 -1 -1 -1 -1 -1 -1 -2 -2
7 6 6 5 4 3 2 1 1 0 -0 -0 -0 -1 -1 -1 -1 -1 -2 -2 -2 -2
6 5 5 4 3 3 2 1 0 -0 -1 -1 -1 -1 -1 -2 -2 -3 -2 -2 -2 -2

GFSNIL_850_temp_054.txt.gz
Temp
12 12 12 12 12 12 12 13 12 12 12 12 12 11 10 10 9 9 9 8 8 7
13 12 13 12 12 12 12 13 12 12 12 12 12 11 10 9 9 9 8 8 7 6
13 14 13 13 13 13 12 12 12 12 12 11 11 11 10 9 9 8 8 7 6 5
13 13 12 12 13 13 12 11 11 12 12 11 11 10 9 9 9 8 7 7 5 4
13 12 12 11 12 12 12 11 11 11 11 10 10 9 9 9 8 8 7 6 5 4
13 12 11 13 12 12 12 11 10 11 10 10 9 9 9 8 8 6 6 5 4 3
14 13 14 14 13 10 11 11 10 9 9 9 9 9 8 7 7 5 4 4 3 2
14 14 13 13 14 11 10 9 9 9 9 9 8 8 7 6 5 4 3 3 2 1
14 14 14 14 12 11 10 9 9 8 8 8 8 7 6 4 3 3 2 2 0 -0
14 14 13 12 11 10 9 9 8 8 7 7 6 5 4 3 2 2 1 -0 -0 -1
13 12 11 10 9 9 8 7 7 6 6 5 4 3 2 2 1 0 -0 -1 -1 -2
10 10 9 9 8 7 7 6 6 5 5 4 3 2 1 0 -1 -1 -1 -1 -1 -2
9 9 9 8 7 7 6 5 4 3 2 1 1 -0 -1 -1 -1 -1 -2 -2 -2 -3
8 8 7 7 6 6 4 3 2 1 -0 -0 -1 -1 -1 -1 -2 -2 -2 -3 -3 -3

GFSNIL_850_temp_057.txt.gz
Temp
11 11 12 12 12 12 12 12 12 12 12 12 12 12 11 11 10 10 10 9 10 8
12 12 12 12 12 11 12 12 12 12 12 12 11 11 12 11 11 10 10 10 8 8
12 12 12 12 12 12 12 11 11 11 12 12 11 11 11 11 11 10 9 9 8 7
13 14 13 12 13 13 12 11 11 11 11 11 11 11 10 10 9 9 9 8 8 7
13 12 12 12 13 13 13 12 11 11 12 12 11 9 9 9 9 9 8 8 7 7
13 11 12 13 12 12 13 12 12 10 11 11 11 10 9 8 8 8 8 8 7 5
14 14 13 13 12 11 12 12 12 11 11 11 10 9 8 8 8 8 7 6 6 4
14 14 13 12 12 12 12 12 11 10 10 10 9 9 8 8 8 7 6 5 4 3
13 13 13 13 13 12 12 10 10 11 10 9 9 8 8 8 7 6 5 5 3 2
13 13 12 13 12 12 13 10 9 10 9 9 8 8 8 7 6 5 4 3 1 1
14 13 13 13 12 11 10 10 10 9 9 8 7 7 6 5 4 3 2 1 0 -0
15 13 12 10 10 10 10 10 9 8 8 7 6 6 4 3 2 1 0 -0 -1 -1
15 11 10 10 9 9 9 8 7 6 5 5 4 3 2 1 0 0 -0 -1 -1 -2
11 10 10 10 9 8 7 6 5 4 3 2 1 1 -0 -1 -1 -1 -2 -2 -2 -3

GFSNIL_850_temp_060.txt.gz
Temp
9 9 9 10 10 11 11 11 11 12 12 12 12 12 12 11 11 10 10 10 10 10
10 10 10 10 10 10 11 11 11 11 12 12 11 11 11 11 11 11 10 10 10 10
12 11 11 11 11 11 11 12 12 12 12 11 11 11 11 10 11 11 11 10 10 10
14 14 13 13 13 12 12 12 12 12 11 11 11 12 11 10 10 10 10 10 10 9
14 14 14 14 13 12 12 11 12 11 11 10 11 11 11 10 10 10 10 9 9 9
14 14 13 12 12 12 12 12 12 11 10 10 11 12 11 11 10 9 9 9 8 8
14 14 14 13 13 13 12 12 12 11 11 11 11 11 11 10 9 9 8 8 8 8
15 15 14 13 13 13 13 12 12 11 11 11 10 11 10 10 9 9 8 8 8 7
14 14 14 14 13 13 13 12 11 10 10 10 10 10 10 9 9 8 8 8 6 4
15 14 13 13 12 12 11 11 11 10 10 10 9 9 9 9 8 8 7 5 4 3
16 14 12 12 12 10 10 10 10 10 9 9 9 9 8 9 8 6 5 4 3 2
16 14 13 12 11 10 10 9 9 9 8 9 9 9 8 6 5 4 3 2 1 1
15 13 12 10 10 10 9 9 9 8 8 8 7 6 5 4 4 3 2 1 -0 -1
12 10 10 10 9 9 9 8 8 7 7 6 4 4 3 2 2 1 0 -1 -1 -2

GFSNIL_850_temp_063.txt.gz
Temp
9 9 9 10 10 10 10 11 11 11 11 11 11 11 11 11 11 11 11 11 10 10
9 9 9 9 9 10 10 10 11 11 11 11 11 11 11 11 11 11 11 10 10 10
11 10 10 10 10 10 10 10 10 10 11 11 10 11 11 11 11 11 11 11 11 10
12 11 11 11 11 10 10 10 10 11 11 11 11 11 11 11 11 11 11 10 10 10
14 13 12 12 13 12 12 12 12 11 11 11 11 11 11 10 10 9 10 9 10 10
14 14 14 14 13 12 13 13 13 13 13 12 11 11 10 10 10 10 10 9 9 10
15 15 15 15 14 14 13 13 13 13 12 12 12 11 10 10 10 9 10 10 9 9
15 15 14 14 14 14 13 13 13 12 12 12 11 11 11 10 10 10 10 9 9 8
15 15 15 14 14 13 13 13 12 12 12 10 10 10 10 9 9 9 9 9 9 8
17 16 15 14 13 13 13 12 12 11 11 11 10 10 9 9 9 9 8 9 8 8
18 17 15 13 12 12 11 11 10 9 10 9 9 9 9 9 9 8 8 8 7 6
17 16 15 13 11 11 10 9 10 9 9 9 9 9 9 9 9 8 7 6 5 4
16 14 14 13 10 10 10 9 9 9 9 8 8 8 8 8 7 7 5 3 2 2
14 12 12 10 9 9 9 9 9 8 8 8 7 6 5 4 4 4 3 3 2 0

GFSNIL_850_temp_069.txt.gz
Temp
9 9 10 9 9 9 11 11 11 11 10 10 10 11 10 11 10 11 11 11 10 10
9 9 9 9 9 9 11 11 11 11 11 11 11 10 10 10 10 11 11 11 10 10
9 9 9 9 9 9 10 11 11 11 11 11 10 10 10 10 10 10 10 10 10 10
9 9 9 9 9 9 9 10 11 11 11 11 10 10 10 11 10 10 10 10 10 10
10 10 10 10 10 10 10 9 10 10 10 10 10 10 10 10 10 10 10 10 10 10
11 10 10 10 10 10 10 10 10 10 10 10 10 10 10 10 10 10 10 10 10 9
11 11 11 10 10 10 10 10 10 10 10 10 10 10 10 10 10 10 10 9 9 9
12 12 11 11 10 10 10 10 10 10 10 10 10 10 10 10 10 10 10 9 9 9
12 12 11 11 10 10 10 10 10 11 10 10 10 10 10 10 10 9 9 9 9 9
13 12 12 11 11 11 11 10 10 10 10 10 10 11 11 10 9 9 9 9 10 9
13 13 12 11 11 11 10 10 10 10 10 9 10 9 9 9 9 8 8 8 8 9
14 13 13 12 12 11 10 10 10 10 9 9 9 9 9 9 8 8 8 8 8 8
15 14 13 13 12 11 11 10 10 10 9 9 9 9 9 9 9 9 9 8 8 7
15 14 14 13 12 11 10 10 10 9 9 9 9 9 9 9 9 8 7 7 6 4

GFSNIL_850_temp_072.txt.gz
Temp
9 10 9 10 10 10 10 10 10 10 11 11 11 11 10 11 10 11 11 11 11 10
9 9 9 9 10 9 9 11 11 11 11 11 11 11 11 11 11 11 11 10 11 11
9 9 9 9 9 9 9 10 11 10 11 11 11 11 11 11 11 11 10 10 10 10
9 10 9 10 10 9 9 9 9 10 11 11 11 11 11 11 11 10 10 10 10 10
10 10 9 9 10 10 10 10 10 10 11 11 11 11 11 11 11 11 11 10 10 10
11 11 10 10 10 10 10 10 10 10 10 11 11 11 11 11 11 11 10 10 10 10
12 13 12 11 10 10 10 9 10 10 10 10 11 11 11 11 11 10 10 10 10 10
12 12 11 11 11 10 10 10 10 10 10 10 10 10 10 10 10 10 10 10 10 10
13 12 12 11 11 11 10 10 10 10 10 10 10 10 10 10 10 10 10 10 10 10
13 13 12 12 11 11 11 11 11 11 10 10 10 10 10 10 10 10 10 10 10 10
14 13 13 12 12 11 11 11 10 10 10 10 10 10 10 10 10 10 10 9 9 9
15 14 13 13 13 12 11 11 10 10 10 10 10 9 10 10 9 9 9 9 9 8
16 15 15 14 13 13 12 11 11 10 10 10 9 9 9 9 9 9 9 9 9 8
14 14 14 14 14 13 13 12 11 11 10 10 10 9 9 9 9 9 9 9 8 8

GFSNIL_850_temp_075.txt.gz
Temp
10 10 10 10 10 10 10 10 10 10 10 11 11 11 11 12 11 12 11 11 9 10
9 10 10 10 10 10 10 10 10 11 11 10 11 10 11 11 11 11 11 11 9 10
9 9 9 10 11 10 10 10 10 10 10 10 10 10 10 11 11 10 11 11 10 11
9 9 9 9 10 10 10 10 11 11 10 10 10 11 11 10 11 11 11 11 11 12
9 9 9 9 9 9 10 10 10 10 11 11 11 11 11 11 11 11 11 11 11 12
11 10 9 9 9 9 9 9 10 10 10 11 11 11 11 11 11 11 11 11 11 11
12 12 11 9 10 9 9 9 9 10 10 10 11 10 11 11 11 11 11 11 11 11
13 12 12 12 10 10 9 9 10 10 10 10 10 10 11 11 11 11 11 11 11 11
14 13 12 12 12 11 11 10 9 9 9 9 10 10 10 10 10 10 10 11 11 11
15 14 13 13 12 12 11 11 11 10 9 9 9 10 10 10 9 9 10 10 10 10
13 14 14 13 13 12 12 12 11 11 10 10 10 10 10 9 9 10 10 10 10 10
12 12 13 13 13 14 12 12 12 11 11 10 11 10 10 10 9 10 10 10 10 10
11 11 11 12 12 12 12 12 12 11 11 10 10 10 10 10 10 10 10 9 9 9
10 10 10 10 12 12 11 11 12 11 10 10 10 10 10 10 10 10 9 9 9 9

GFSNIL_850_temp_078.txt.gz
Temp
11 11 11 11 10 10 10 10 10 10 10 10 10 10 10 10 11 11 11 11 11 11
10 10 10 10 11 10 11 10 10 10 10 10 10 10 11 11 11 11 11 11 11 11
10 9 9 10 10 10 10 10 10 10 10 10 10 11 11 11 11 11 11 11 11 11
9 9 10 10 10 10 10 10 10 10 11 10 10 10 11 11 12 11 11 10 11 11
9 9 9 10 10 10 10 10 10 10 10 10 10 10 11 11 10 10 10 11 11 11
10 9 9 9 9 9 9 10 10 10 10 10 10 10 10 11 11 10 10 10 11 11
12 11 10 9 9 9 9 9 9 9 9 10 10 10 10 10 10 11 10 10 11 11
14 13 12 11 10 9 9 9 9 9 9 9 9 9 9 10 10 10 10 10 10 10
12 12 12 12 12 12 11 10 9 9 9 9 9 9 9 9 9 9 9 9 9 10
10 11 12 12 12 12 11 11 11 11 10 10 10 10 9 9 9 9 10 10 10 10
11 10 10 10 10 11 11 12 12 11 11 11 11 11 10 10 9 9 9 9 10 10
10 10 11 11 10 10 10 10 11 11 11 11 11 10 9 10 9 9 9 10 10 9
9 9 10 10 10 10 10 10 10 10 10 10 10 10 10 10 10 10 10 10 9 9
8 8 8 7 8 9 9 10 9 10 10 10 10 10 10 10 10 10 9 10 10 9

GFSNIL_850_temp_081.txt.gz
Temp
10 10 10 10 10 10 10 10 10 9 9 9 10 10 10 10 10 10 10 10 11 11
10 10 10 10 10 9 9 9 10 9 9 10 10 10 10 10 10 9 10 10 10 11
10 10 10 10 10 9 9 9 9 9 9 9 10 10 10 10 10 9 10 10 10 11
10 10 10 10 10 10 10 9 9 10 9 9 9 9 9 10 10 10 10 10 10 11
9 10 10 10 10 10 10 10 10 10 10 10 10 10 10 10 10 10 10 10 11 11
9 9 9 10 10 10 10 10 10 10 10 10 10 10 10 10 10 10 11 11 11 11
9 9 9 9 9 9 9 10 10 10 10 10 10 10 9 9 9 9 10 10 11 11
11 10 10 9 9 9 9 9 9 9 9 9 9 9 9 9 9 9 9 10 10 10
11 11 11 10 10 10 9 9 9 9 9 9 8 8 8 9 9 9 9 9 10 9
9 9 10 10 10 10 9 10 10 10 9 9 9 8 8 9 9 9 9 9 9 9
9 9 9 9 9 10 10 10 10 9 9 9 10 9 9 9 9 9 9 9 9 9
9 9 9 9 9 9 9 9 9 9 9 9 9 9 9 9 9 9 9 9 9 8
8 8 8 8 8 9 9 9 9 9 9 9 9 9 10 9 9 9 9 9 8 9
7 7 7 6 6 7 7 8 8 8 8 8 7 7 8 8 8 8 8 7 7 7

GFSNIL_850_temp_084.txt.gz
Temp
10 9 10 10 10 10 10 11 10 10 9 9 8 8 10 10 11 11 11 11 10 11
9 9 9 9 9 10 10 10 10 10 9 9 9 8 8 10 10 10 10 10 10 10
10 9 9 9 10 10 9 10 10 10 10 9 9 8 9 9 9 10 10 9 10 10
9 9 9 10 9 9 9 9 9 9 9 9 9 9 9 9 10 10 10 9 9 9
9 9 9 9 9 9 9 9 9 9 9 9 9 9 9 10 10 10 10 10 10 10
8 9 9 9 9 9 9 9 9 9 9 9 9 9 9 10 10 10 10 9 10 10
9 9 8 8 9 9 10 10 9 9 9 9 9 9 9 9 9 9 9 9 9 9
10 10 10 9 9 9 9 9 9 9 9 9 9 9 9 9 9 9 9 9 9 9
10 10 10 9 9 9 9 9 9 9 9 9 9 9 9 9 8 9 9 9 9 9
9 9 9 9 9 9 9 10 9 9 9 9 9 9 9 8 8 8 8 8 8 8
9 9 9 9 9 9 9 9 9 9 9 9 9 9 9 9 9 9 9 9 9 9
8 8 8 9 9 9 9 9 9 9 8 9 8 9 9 9 9 9 9 8 8 8
7 7 7 8 7 8 8 8 8 8 8 8 8 8 9 9 8 8 8 8 8 8
6 6 6 5 6 6 6 7 7 6 6 6 6 6 6 6 6 7 7 6 6 5

GFSNIL_850_temp_087.txt.gz
Temp
9 10 10 10 10 10 10 10 10 10 10 10 10 10 10 10 10 10 10 10 10 11
9 9 9 9 9 10 10 11 10 10 10 10 9 9 9 9 10 10 10 10 10 10
9 9 9 10 9 9 10 10 10 11 10 9 10 9 9 9 9 9 9 9 10 10
9 9 9 9 9 9 9 9 10 10 9 9 9 9 9 8 8 8 9 9 10 9
9 9 9 9 9 9 9 9 9 9 9 9 9 9 9 8 8 9 9 9 9 9
8 9 9 9 9 9 9 9 9 8 9 9 9 9 9 9 9 9 9 9 9 9
8 8 8 9 9 9 9 9 9 9 9 9 9 9 9 9 9 9 9 9 9 9
8 8 8 8 8 9 9 9 9 9 9 9 9 9 9 9 9 9 9 9 9 9
9 9 8 8 8 8 8 8 9 9 9 9 9 9 9 9 9 9 9 9 9 9
9 9 9 9 9 9 9 9 9 9 9 9 8 8 8 8 8 8 8 8 8 8
8 8 8 8 8 9 9 9 9 9 9 9 9 9 9 9 9 9 9 8 8 8
8 8 8 8 8 8 8 9 9 9 8 8 8 8 8 9 8 8 8 8 8 8
7 7 7 7 7 7 8 8 7 7 7 7 7 7 7 8 8 8 7 7 7 8
4 5 5 5 5 5 6 6 5 5 5 5 5 5 5 5 5 5 5 5 5 4

GFSNIL_850_temp_090.txt.gz
Temp
10 10 10 10 10 10 9 10 9 9 10 10 10 10 10 10 10 10 10 10 10 10
9 9 10 10 10 10 10 10 9 9 10 10 10 10 10 10 10 10 10 10 10 10
9 9 9 10 9 9 9 10 10 9 10 10 9 10 10 10 9 9 9 9 10 10
9 9 9 9 9 9 10 9 10 10 10 11 10 10 10 10 9 8 9 9 9 10
10 9 9 9 10 9 9 9 10 10 10 10 9 10 10 9 9 9 9 8 8 9
10 10 10 10 9 9 9 9 9 9 9 9 9 9 9 9 9 9 8 8 9 10
9 9 10 9 9 9 9 9 9 9 9 9 9 9 9 9 9 9 9 9 9 9
9 9 9 9 9 9 9 9 9 9 9 9 9 9 9 9 9 9 9 9 8 9
9 9 9 9 9 9 9 9 9 9 9 9 9 9 8 8 9 9 9 9 9 9
8 8 9 8 8 9 9 9 9 8 9 8 8 9 9 8 8 8 8 8 8 8
9 8 8 8 9 8 9 9 9 8 8 8 9 9 9 8 8 8 8 8 8 8
8 8 8 8 8 8 8 8 8 8 8 8 8 8 8 9 8 8 8 8 7 7
6 6 6 7 7 7 7 7 7 7 7 7 7 7 8 8 8 7 7 7 7 6
4 5 4 4 5 5 5 5 4 4 4 4 5 5 5 6 5 5 5 4 4 3

GFSNIL_850_temp_093.txt.gz
Temp
12 11 11 11 11 11 11 10 10 10 10 10 10 10 9 9 10 10 10 11 11 11
11 11 11 11 11 11 10 10 10 10 10 10 10 10 9 9 10 10 10 10 10 11
11 10 10 11 10 10 10 10 9 9 10 9 10 10 10 9 10 10 10 10 10 10
10 10 10 10 10 10 10 9 9 9 8 9 9 9 9 10 10 10 10 10 10 10
10 10 9 9 10 10 9 9 9 9 9 9 9 9 9 10 10 10 10 10 9 9
10 10 10 9 9 9 9 9 9 9 9 9 9 9 10 10 10 10 10 9 8 9
10 10 9 9 9 9 9 9 9 9 9 10 9 10 10 9 9 9 9 9 8 8
9 9 9 9 9 9 9 9 9 9 9 9 9 9 9 9 9 9 9 9 8 8
9 9 9 9 9 9 9 9 9 9 9 9 9 9 9 9 9 9 9 9 9 8
9 9 8 9 8 8 9 9 9 9 9 9 9 9 9 9 9 9 9 9 9 9
9 9 9 9 9 9 9 9 8 8 8 9 9 9 9 9 9 9 9 8 8 8
8 8 9 9 9 8 9 9 9 8 8 8 8 9 9 9 8 8 8 8 8 8
7 7 7 8 8 8 8 8 8 8 7 7 7 8 8 8 8 8 7 7 7 7
3 4 4 4 4 4 4 4 4 4 4 4 4 5 5 5 5 5 5 4 3 4

GFSNIL_850_temp_096.txt.gz
Temp
14 14 14 13 12 12 11 11 11 10 10 10 10 10 10 10 10 10 9 10 10 12
13 13 13 12 11 11 11 11 10 10 10 10 10 10 10 10 10 9 9 10 10 11
13 12 11 11 11 11 11 11 11 10 10 10 10 10 10 10 10 9 9 10 10 11
11 11 10 10 11 11 11 10 10 10 9 10 10 10 10 10 9 9 9 10 11 11
10 10 10 10 10 10 10 9 9 9 9 9 10 10 9 10 9 10 10 10 10 10
10 10 9 10 10 9 9 9 9 9 9 9 9 9 9 10 9 9 9 9 10 10
10 10 9 9 10 10 9 9 9 9 9 9 9 9 9 9 8 9 9 9 9 9
10 10 10 10 10 10 9 9 9 9 9 9 9 9 9 9 9 8 8 9 9 9
10 10 10 9 10 9 9 9 9 9 9 9 8 9 9 9 9 8 8 9 9 9
9 9 9 9 9 9 9 10 9 9 9 9 9 9 9 9 8 9 8 9 9 8
9 9 9 9 9 9 9 9 9 9 9 9 9 9 9 9 9 9 9 8 8 8
8 8 8 8 8 9 8 8 8 8 8 8 8 8 8 9 9 8 8 8 8 8
5 6 8 8 8 8 8 8 8 8 7 8 8 8 8 8 8 8 8 7 7 8
0 1 2 4 5 6 6 6 5 5 4 4 5 6 6 6 5 5 5 4 3 3

GFSNIL_850_temp_099.txt.gz
Temp
16 15 15 14 13 13 13 13 12 11 10 10 10 10 10 10 10 10 10 10 10 10
15 15 14 14 13 12 12 12 11 10 10 10 10 10 10 10 10 10 10 10 10 10
15 13 13 13 12 12 12 11 11 10 11 10 10 10 10 10 10 10 10 10 10 10
14 13 13 12 11 11 11 11 10 10 10 10 10 10 10 10 10 10 10 10 9 9
13 12 11 11 10 11 11 10 9 9 9 9 10 10 10 10 10 10 10 10 9 9
11 11 11 10 10 10 9 9 9 9 9 9 9 10 10 10 9 10 10 9 9 9
11 10 10 10 9 10 9 9 9 9 9 9 9 9 10 10 10 9 9 9 9 10
10 10 10 9 9 10 9 9 9 9 9 9 9 9 9 9 9 9 9 9 9 9
10 10 9 10 10 10 9 9 9 9 9 9 9 9 9 9 9 9 9 9 9 8
9 10 9 9 10 9 9 9 9 9 8 8 9 8 8 8 8 8 8 8 8 8
9 10 10 10 10 9 9 9 9 9 9 9 9 9 8 8 8 8 8 8 8 8
7 9 9 9 9 9 8 8 8 8 8 8 8 9 9 8 8 8 8 8 8 7
1 4 7 7 7 7 7 7 7 7 7 7 8 8 7 7 8 8 8 7 8 7
-2 -3 0 3 3 2 2 2 2 3 4 4 5 5 5 5 6 6 6 6 5 5

GFSNIL_850_temp_102.txt.gz
Temp
18 17 16 16 15 14 13 13 12 11 11 10 10 10 10 10 10 11 10 10 10 10
17 16 15 15 15 14 13 12 12 12 11 10 10 10 10 10 10 10 10 10 10 10
16 16 15 14 14 13 13 12 11 11 10 10 10 10 10 10 10 10 10 10 10 10
15 15 14 13 13 13 12 11 10 10 10 10 10 10 10 10 10 10 10 10 10 10
15 14 13 13 12 12 11 10 10 10 9 9 9 10 10 10 10 10 10 10 10 10
12 13 12 11 11 10 10 10 9 9 9 9 9 9 9 10 10 10 10 10 10 9
11 12 11 11 10 9 10 9 9 9 9 9 9 9 9 9 10 10 10 10 9 9
10 10 10 10 10 9 10 9 9 9 8 9 9 9 9 9 10 9 9 9 9 9
10 9 9 10 9 9 9 9 9 8 8 8 9 9 9 9 9 9 9 9 9 9
9 9 9 9 9 9 9 9 9 8 9 8 9 8 8 9 8 9 9 9 9 9
7 8 9 9 9 9 9 9 9 9 8 9 9 8 8 8 8 8 8 8 8 8
2 4 6 6 8 9 9 9 8 8 8 8 8 9 8 8 8 8 8 8 8 8
0 -1 0 2 2 5 7 8 7 6 6 7 7 8 8 8 7 7 7 7 7 7
-2 -1 -3 -3 -1 1 0 4 4 4 4 4 5 5 5 5 6 6 5 5 5 5

GFSNIL_850_temp_105.txt.gz
Temp
17 17 17 18 17 18 17 15 13 13 12 12 12 11 11 11 11 11 10 10 10 10
16 17 18 18 17 16 15 13 13 12 12 11 11 11 11 11 10 10 10 10 10 9
17 17 17 17 16 15 14 13 13 12 11 11 11 10 10 10 10 10 10 10 10 10
16 15 16 15 15 14 13 13 12 12 11 11 10 10 10 10 10 10 10 10 10 9
15 15 14 14 14 13 12 12 12 11 10 10 9 9 9 10 10 10 10 10 10 10
14 14 14 13 13 12 12 11 11 10 9 10 9 9 9 9 10 10 10 10 10 10
11 12 11 11 11 11 10 10 10 8 9 9 8 9 8 9 9 9 9 9 10 10
10 10 10 9 10 10 10 9 9 8 9 9 8 8 9 8 9 9 9 10 10 10
9 10 10 9 9 9 9 10 9 8 8 8 8 8 8 8 9 9 9 9 9 10
8 9 9 9 9 9 9 10 8 9 8 8 8 8 8 8 8 9 9 9 9 9
3 5 6 7 8 8 8 9 8 8 8 8 9 9 8 8 8 8 8 8 9 9
1 2 2 3 3 4 4 7 7 7 8 8 8 8 8 8 8 8 8 8 7 7
-1 -0 1 1 0 -1 -0 1 2 5 5 7 8 8 8 7 7 7 7 8 7 7
-2 -2 -2 -1 -0 -1 -2 -3 -3 -0 2 3 3 6 5 4 5 6 6 6 6 7

GFSNIL_850_temp_108.txt.gz
Temp
13 15 14 15 16 15 16 17 17 17 16 14 14 13 12 12 12 12 12 11 11 11
13 13 13 14 14 15 16 17 16 16 14 14 13 12 12 12 12 12 11 11 11 11
13 13 14 15 15 16 16 16 15 14 13 13 12 12 11 11 11 11 10 11 10 10
12 13 13 14 16 16 16 15 14 13 13 12 12 11 11 10 10 10 11 10 10 11
12 13 13 15 15 15 15 14 13 12 12 11 11 11 10 10 10 10 10 10 9 9
12 12 12 13 14 14 14 13 12 11 11 11 10 9 9 9 9 9 10 10 9 10
10 10 12 13 13 13 11 11 10 10 10 9 9 8 9 9 8 8 9 9 9 9
10 10 10 10 10 9 9 9 9 9 8 8 8 8 8 8 9 9 9 9 9 9
5 8 10 9 9 9 8 8 8 8 8 8 8 8 8 8 9 9 9 9 9 9
4 3 6 8 8 8 8 8 8 8 7 7 8 8 8 8 8 8 8 8 9 9
2 2 3 4 6 7 7 7 6 6 7 7 7 8 8 8 8 8 8 8 9 9
-1 1 1 1 2 2 2 3 4 4 4 5 6 7 8 8 8 8 7 7 7 7
-2 -2 -1 -0 -0 -0 0 1 0 -1 -2 0 3 2 4 5 5 6 6 7 7 7
-3 -3 -3 -2 -2 -2 -1 -1 -1 1 -2 -3 -2 -1 0 1 3 4 3 5 5 6

GFSNIL_850_temp_111.txt.gz
Temp
11 12 12 12 13 14 14 16 17 18 17 17 17 16 15 14 13 13 12 12 12 12
12 12 13 12 12 14 15 16 15 17 17 17 16 16 14 13 13 13 12 12 12 12
13 12 12 12 13 13 14 14 14 14 16 16 15 13 13 13 12 12 12 12 12 11
12 12 12 12 12 13 13 14 14 14 15 15 14 13 12 12 12 12 11 11 11 11
12 11 12 12 13 13 13 13 13 14 14 13 12 12 12 11 11 11 10 11 10 11
11 11 11 12 12 12 12 13 13 13 13 12 11 11 11 10 10 10 9 10 10 9
9 10 10 10 11 11 11 11 11 11 11 11 11 10 10 10 9 9 9 9 9 9
7 9 9 10 10 10 10 10 10 9 9 9 10 9 9 8 8 8 9 9 9 8
4 5 8 8 9 9 9 8 8 8 9 8 8 8 8 8 8 8 8 8 9 9
1 1 2 3 5 7 7 8 9 8 7 7 7 7 7 8 8 7 7 8 8 9
-0 0 2 2 2 2 2 5 5 6 6 6 6 7 7 7 7 7 7 8 8 8
-1 -1 -1 -1 1 0 -0 1 1 1 2 3 4 5 5 6 5 6 6 6 7 7
-3 -3 -3 -3 -3 -3 -2 -1 -1 -1 -1 -0 0 0 1 3 3 3 4 4 4 5
-3 -4 -4 -4 -3 -4 -3 -3 -3 -2 -3 -2 -1 -1 0 -1 0 0 1 2 2 3

GFSNIL_850_temp_114.txt.gz
Temp
10 10 13 14 15 14 13 13 13 14 17 16 17 17 17 16 16 14 14 13 13 12
9 10 13 14 14 14 13 12 13 13 13 15 16 17 17 17 16 15 15 14 13 13
10 11 12 12 13 13 13 13 13 12 13 14 16 17 16 16 16 14 14 13 13 12
10 11 12 12 12 13 13 13 13 12 12 12 13 14 16 16 15 14 13 12 12 12
11 12 12 12 12 12 12 13 13 13 12 12 13 13 13 15 13 13 12 12 12 11
11 11 11 11 11 11 12 12 11 12 12 12 12 12 13 13 12 11 11 11 10 10
8 9 10 10 11 11 11 11 11 10 11 11 11 11 11 11 11 11 10 10 10 10
3 5 7 9 9 10 10 10 10 10 11 11 11 11 10 10 10 9 9 8 9 9
1 2 2 4 6 8 9 9 9 9 9 9 9 9 9 9 9 9 8 8 8 9
-0 1 1 1 0 2 3 5 6 6 6 7 7 8 7 8 8 8 7 8 8 8
-1 -0 -0 1 0 0 -1 1 2 3 3 4 4 7 7 7 7 7 7 7 7 7
-2 -2 -2 -1 -1 -0 -0 0 0 1 1 2 0 1 2 3 5 4 5 5 6 6
-3 -4 -3 -3 -4 -3 -2 -2 -2 -1 -2 -2 -2 -1 1 1 1 1 1 1 2 3
-4 -4 -4 -4 -4 -4 -3 -2 -3 -4 -4 -3 -3 -2 -2 -1 -1 -0 -0 -0 -0 0

GFSNIL_850_temp_117.txt.gz
Temp
6 5 6 8 13 14 15 14 14 14 13 14 13 15 16 15 15 14 14 13 13 12
4 6 6 8 11 13 14 15 14 13 13 12 13 13 15 17 17 15 15 14 12 14
4 6 7 8 11 12 13 15 14 13 13 12 12 13 13 14 15 15 15 16 16 13
3 6 8 9 11 13 13 13 13 13 13 12 12 12 13 13 15 13 13 15 13 14
3 6 9 11 12 12 13 13 13 13 13 12 12 12 12 13 13 13 13 14 14 12
3 7 10 10 10 12 12 12 12 12 12 12 12 12 12 12 12 13 13 14 13 12
3 6 8 9 11 11 11 12 13 12 12 12 12 12 12 12 12 12 12 12 11 11
1 2 4 6 6 7 8 9 9 10 11 11 11 11 11 11 11 11 11 11 10 10
-1 1 1 1 1 3 4 5 6 7 9 9 10 9 9 10 10 10 10 10 9 9
-3 -1 -1 -0 0 0 0 1 2 2 4 6 8 7 8 8 8 8 8 8 8 8
-2 -3 -3 -3 -1 -1 -1 -1 -0 -1 -0 1 2 3 4 5 5 6 4 6 7 7
-4 -4 -4 -4 -5 -3 -3 -2 -2 -2 -2 -1 -1 1 1 2 2 1 1 2 3 3
-4 -3 -4 -4 -4 -4 -4 -4 -3 -3 -4 -3 -2 -0 -1 0 0 -0 0 -0 0 1
-4 -4 -3 -3 -2 -3 -3 -3 -4 -4 -3 -3 -4 -4 -3 -2 -2 -2 -2 -1 -1 -1

GFSNIL_850_temp_120.txt.gz
Temp
0 1 3 5 8 11 13 14 13 13 14 14 15 15 15 16 14 13 13 13 13 13
-1 0 2 4 5 8 11 13 12 13 13 14 14 14 14 14 13 14 13 13 13 13
-1 0 1 3 4 7 10 12 12 12 13 12 13 14 14 13 12 13 13 13 14 13
-1 0 2 3 4 7 9 10 12 12 14 13 11 13 13 13 13 12 13 13 13 13
-1 0 2 3 5 7 7 9 11 11 13 13 12 13 13 13 12 12 12 13 13 13
-3 -1 0 2 6 8 9 10 12 12 12 11 12 12 12 12 12 12 12 12 12 13
-4 -3 -2 -0 4 5 7 9 8 8 10 10 13 12 12 12 12 12 12 12 11 12
-6 -5 -2 1 1 2 6 9 5 6 8 9 9 10 11 12 12 12 12 11 11 11
-5 -5 -4 -0 0 1 1 1 0 3 4 6 5 6 8 11 11 11 10 10 10 10
-4 -4 -4 -3 -2 -1 -2 -1 -0 -0 -0 -0 0 1 4 6 7 6 8 7 7 8
-4 -3 -3 -3 -4 -1 -4 -2 -1 -1 -1 -1 -1 -1 -0 2 3 0 4 3 5 4
-3 -3 -3 -4 -3 -2 -3 -3 -2 -2 -1 -3 -1 -2 1 1 0 -0 1 -1 0 2
-4 -3 -3 -4 -3 -3 -4 -4 -3 -4 -2 -4 -3 -3 -2 -2 -0 -0 0 -0 -0 1
-4 -4 -4 -4 -3 -3 -3 -3 -3 -4 -4 -4 -5 -4 -4 -3 -3 -3 -3 -3 -2 -2

GFSNIL_850_temp_123.txt.gz
Temp
-1 -2 -2 -1 1 5 7 10 12 13 13 13 13 13 13 13 14 13 12 14 13 13
-2 -1 -1 -1 1 4 7 9 10 11 12 14 13 13 13 13 13 13 13 14 14 12
-3 -2 -1 -1 1 2 4 7 9 10 11 11 13 13 13 13 13 13 13 13 13 12
-4 -3 -2 -1 1 2 3 6 8 9 9 10 11 12 13 13 13 11 12 13 14 13
-4 -3 -3 -1 1 2 4 7 6 5 6 8 9 11 12 13 14 12 10 13 14 14
-5 -4 -4 -2 -1 1 3 4 5 6 7 8 10 10 12 12 12 11 11 12 12 14
-6 -6 -5 -4 -3 -2 1 3 4 6 7 8 8 9 10 12 13 12 11 11 12 12
-6 -6 -6 -5 -3 -2 0 0 1 3 4 5 7 8 8 9 10 10 10 11 11 11
-5 -4 -5 -4 -5 -2 -2 -3 -0 1 0 -0 1 2 1 4 3 5 7 8 9 9
-4 -5 -5 -5 -4 -3 -1 -3 -1 -2 -1 1 0 0 1 1 3 0 2 3 3 4
-3 -3 -4 -4 -4 -6 -5 -3 -4 -4 -3 -2 -3 -1 0 0 0 0 1 0 -0 1
-4 -3 -3 -3 -4 -4 -4 -4 -4 -4 -4 -3 -3 -2 -2 -0 -1 -0 -1 -0 0 0
-5 -5 -5 -4 -4 -4 -4 -4 -4 -4 -4 -4 -4 -3 -3 -3 -3 -2 -4 -3 -2 -2
-5 -5 -4 -4 -4 -4 -3 -3 -3 -4 -4 -4 -4 -4 -4 -3 -3 -4 -4 -4 -4 -3

GFSNIL_850_temp_126.txt.gz
Temp
-4 -4 -3 -2 -1 -1 1 4 7 8 9 11 12 13 12 11 12 13 12 12 12 12
-5 -4 -3 -2 -1 -1 -0 1 5 7 9 10 11 12 13 12 11 13 13 13 13 13
-5 -4 -4 -3 -2 -1 -0 1 2 6 9 9 10 10 11 12 13 13 13 13 13 13
-6 -5 -4 -3 -3 -2 -0 1 2 5 6 7 9 9 9 10 12 12 12 12 12 12
-6 -5 -5 -4 -3 -2 -0 1 3 5 6 5 6 7 8 10 11 12 12 12 12 12
-7 -6 -6 -5 -4 -3 -1 0 2 3 4 4 5 5 7 8 11 10 10 11 11 12
-7 -7 -6 -6 -4 -3 -3 -2 -0 1 2 3 4 5 7 8 8 9 9 9 10 9
-6 -6 -6 -5 -4 -3 -2 -2 -3 -2 -1 1 4 4 5 6 7 7 8 8 9 9
-4 -4 -4 -4 -3 -3 -3 -3 -3 -3 -3 -2 -1 -0 1 2 3 4 3 4 5 5
-4 -3 -4 -3 -3 -4 -3 -3 -4 -3 -3 -4 -3 -0 0 0 0 0 1 0 1 2
-4 -4 -3 -3 -3 -3 -3 -3 -3 -4 -4 -4 -4 -2 -2 -1 -0 -1 -1 -1 -0 -0
-4 -4 -4 -3 -4 -4 -4 -3 -3 -4 -4 -4 -5 -3 -2 -2 -3 -4 -3 -2 -1 -1
-5 -5 -5 -5 -5 -5 -5 -5 -4 -4 -5 -5 -5 -4 -4 -4 -4 -4 -4 -4 -4 -3
-7 -6 -6 -6 -6 -6 -6 -6 -6 -6 -6 -6 -8 -8 -6 -5 -5 -6 -6 -6 -5 -6